Home   Weather   Vilnius   Past weeks

Flag for Lithuania Past Weather in Vilnius, Lithuania — Yesterday and Last 2 Weeks

Now
32 °F

Light rain. Low clouds.


Feels Like: 25 °F
Forecast: 26 / 29 °F
Wind: 8 mph from Northeast

Location: Vilnius Airport

Current Time: Dec 10, 2016 at 4:53:55 pm

Latest Report: Dec 10, 2016 at 4:20 pm


Visibility: 3 mi

Pressure: 29.68 "Hg

Humidity: 100%

Dew Point: 32 °F

Location of VilniusLocation

Past Weather in Vilnius — Graph

°F

Vilnius Temperature Yesterday

Maximum temperature yesterday: 45 °F (at 12:20 am)
Minimum temperature yesterday: 41 °F (at 10:50 pm)
Average temperature yesterday: 43 °F

High & Low Weather Summary for the Past Weeks

 TemperatureHumidityPressure
High45 °F (Dec 8, 5:50 pm)100% (Nov 25, 7:01 pm)30.51 "Hg (Nov 25, 7:01 pm)
Low10 °F (Dec 7, 5:20 am)63% (Dec 6, 7:50 pm)29.39 "Hg (Nov 27, 12:50 pm)
Average30 °F90%29.85 "Hg
* Reported Nov 25 3:20 pm — Dec 10 3:20 pm, Vilnius, Weather by CustomWeather, © 2016

Note: Actual official high and low records may vary slightly from our data, if they occured in-between our weather recording intervals... More about our weather records

Advertising

Vilnius Weather History for the Previous 24 Hours

Scroll right to see more
 ConditionsComfort  
Time TempWeatherWind HumidityBarometerVisibility
3:20 pm
Sat, Dec 10
34 °FLight rain. Low clouds.9 mph100%29.68 "HgN/A
2:50 pm37 °FLight rain. Mostly cloudy.7 mph93%29.68 "HgN/A
2:20 pm37 °FLight rain. Low clouds.8 mph93%29.68 "HgN/A
1:50 pm39 °FLight rain. Low clouds.7 mph93%29.68 "HgN/A
1:20 pm39 °FLight rain. Mostly cloudy.7 mph93%29.68 "Hg5 mi
12:50 pm39 °FLight rain. Mostly cloudy.8 mph93%29.68 "HgN/A
12:20 pm41 °FLight rain. Low clouds.8 mph93%29.68 "HgN/A
11:50 am41 °FLight rain. Partly sunny.9 mph93%29.71 "HgN/A
11:20 am41 °FLight rain. Partly sunny.10 mph93%29.71 "Hg4 mi
10:50 am41 °FLight rain. Low clouds.8 mph93%29.71 "Hg4 mi
10:20 am41 °FLight rain. Low clouds.8 mph93%29.71 "Hg6 mi
9:50 am41 °FLight rain. Low clouds.9 mph93%29.71 "Hg4 mi
9:20 am41 °FLight rain. Low clouds.10 mph93%29.71 "Hg6 mi
8:50 am41 °FLight rain. Low clouds.9 mph93%29.74 "HgN/A
8:20 am41 °FLight rain. Low clouds.9 mph93%29.74 "HgN/A
7:50 am41 °FLow clouds.10 mph93%29.74 "HgN/A
7:20 am41 °FLow clouds.10 mph87%29.74 "HgN/A
6:50 am41 °FLow clouds.12 mph87%29.74 "HgN/A
6:20 am41 °FLow clouds.13 mph87%29.77 "HgN/A
5:50 am41 °FLow clouds.13 mph87%29.77 "HgN/A
5:20 am41 °FLow clouds.12 mph87%29.77 "HgN/A
4:50 am41 °FLow clouds.10 mph87%29.77 "HgN/A
4:20 am41 °FLow clouds.10 mph87%29.77 "HgN/A
3:50 am41 °FLow clouds.12 mph87%29.80 "HgN/A
3:20 am41 °FLow clouds.9 mph87%29.80 "HgN/A
2:50 am41 °FLow clouds.13 mph87%29.80 "HgN/A
2:20 am41 °FOvercast.13 mph87%29.80 "HgN/A
1:50 am41 °FPassing clouds.12 mph87%29.77 "HgN/A
1:20 am41 °FPassing clouds.13 mph87%29.77 "HgN/A
12:50 am41 °FPassing clouds.13 mph87%29.77 "HgN/A
12:20 am41 °FPassing clouds.10 mph93%29.77 "HgN/A
11:50 pm
Fri, Dec 9
41 °FPassing clouds.12 mph93%29.77 "HgN/A
11:20 pm41 °FOvercast.12 mph93%29.77 "HgN/A
10:50 pm41 °FOvercast.12 mph93%29.77 "HgN/A
10:20 pm43 °FPassing clouds.14 mph87%29.77 "HgN/A
9:50 pm43 °FPassing clouds.14 mph87%29.74 "HgN/A
9:20 pm43 °FLow clouds.15 mph87%29.74 "HgN/A
8:50 pm43 °FLight rain. Low clouds.14 mph93%29.71 "HgN/A
8:20 pm43 °FLight rain. Low clouds.15 mph93%29.71 "HgN/A
7:50 pm43 °FLight rain. Low clouds.14 mph93%29.68 "Hg6 mi
7:20 pm43 °FLight rain. Low clouds.14 mph93%29.68 "Hg4 mi
6:58 pm43 °FLight rain. Low clouds.13 mph93%29.68 "Hg4 mi
6:20 pm43 °FLight rain. Low clouds.15 mph93%29.65 "Hg5 mi
5:50 pm43 °FLight rain. Low clouds.14 mph93%29.65 "HgN/A
5:20 pm43 °FLight rain. Low clouds.14 mph93%29.65 "HgN/A
4:50 pm43 °FLight rain. Low clouds.17 mph93%29.68 "HgN/A
4:20 pm43 °FLight rain. Low clouds.18 mph87%29.68 "HgN/A
Weather by CustomWeather, © 2016

See weather overviewHow to use our weather pages